Change the Weather History Date:

Wednesday, July 24, 2013

  Actual Average (KMLU) Record (KMLU)
Temperature  
Mean Temperature 83 °F 83 °F  
Max Temperature 93 °F 94 °F 102 °F (1948)
Min Temperature 73 °F 72 °F 63 °F (1988)
Degree Days  
Heating Degree Days 0 0  
Month to date heating degree days 0  
Since 1 June heating degree days 0  
Since 1 July heating degree days 0  
Cooling Degree Days 18 18  
Month to date cooling degree days 432  
Year to date cooling degree days 1333  
Since 1 June cooling degree days 898  
Growing Degree Days 33 (Base 50)    
Moisture  
Dew Point 73 °F    
Average Humidity 79    
Maximum Humidity 92    
Minimum Humidity 47    
Precipitation  
Precipitation 0.05 in 0.09 in 2.73 in (1933)
Month to date precipitation 2.89  
Year to date precipitation 31.62  
Snow  
Snow 0.00 in - - ()
Month to date snowfall  
Since 1 June snowfall  
Since 1 July snowfall  
Snow Depth -    
Sea Level Pressure  
Sea Level Pressure 29.93 in    
Wind  
Wind Speed 1 mph (NW)    
Max Wind Speed 13 mph    
Max Gust Speed 21 mph    
Visibility 9 miles    
Events Rain , Thunderstorm    
T = Trace of Precipitation, MM = Missing Value Source: NWS Daily Summary

Daily Weather History Graph

Daily Weather History Graph

Search for Another Location

Airport or City:

Trip Planner

Search our weather history database for the weather conditions in past years. The results will help you decide how hot, cold, wet, or windy it might be!

Date:

Astronomy

Jul. 24, 2013 Rise Set
Actual Time 6:16 AM CDT 8:11 PM CDT
Civil Twilight 5:48 AM CDT 8:38 PM CDT
Nautical Twilight 5:15 AM CDT 9:11 PM CDT
Astronomical Twilight 4:40 AM CDT 9:47 PM CDT
Moon 9:30 PM CDT (7/24) 8:26 AM CDT (7/24)
Length of Visible Light 14h 50m
Length of Day
13h 55m
Waning Gibbous, 94% of the Moon is Illuminated
Jul 24
Waning Gibbous
Jul 29
Last Quarter
Aug 6
New
Aug 14
First Quarter
Aug 20
Full

Hourly Weather History & Observations

Time (CDT) Temp. Heat Index Dew Point Humidity Pressure Visibility Wind Dir Wind Speed Gust Speed Precip Events Conditions
12:15 AM 77.9 °F - 72.5 °F 83% 29.91 in 10.0 mi Calm Calm - 0.01 in Rain Light Rain
12:35 AM 76.1 °F - 72.9 °F 90% 29.90 in 7.0 mi Calm Calm - 0.03 in Rain Light Rain
12:55 AM 76.1 °F - 71.8 °F 86% 29.90 in 10.0 mi Calm Calm - 0.03 in Rain Light Rain
1:15 AM 75.4 °F - 71.6 °F 88% 29.88 in 10.0 mi Calm Calm - N/A   Light Drizzle
1:35 AM 75.2 °F - 72.1 °F 90% 29.90 in 10.0 mi Calm Calm - N/A   Clear
1:55 AM 75.2 °F - 72.3 °F 91% 29.91 in 10.0 mi Calm Calm - N/A   Clear
2:15 AM 75.2 °F - 72.5 °F 91% 29.91 in 10.0 mi Calm Calm - N/A   Scattered Clouds
2:35 AM 75.6 °F - 72.7 °F 91% 29.91 in 10.0 mi Calm Calm - N/A   Scattered Clouds
2:55 AM 75.6 °F - 72.7 °F 91% 29.91 in 10.0 mi Calm Calm - N/A   Clear
3:15 AM 75.6 °F - 72.9 °F 91% 29.92 in 10.0 mi Calm Calm - N/A   Clear
3:35 AM 75.2 °F - 72.5 °F 91% 29.93 in 10.0 mi Calm Calm - N/A   Clear
3:55 AM 75.2 °F - 72.5 °F 91% 29.92 in 10.0 mi Calm Calm - N/A   Scattered Clouds
4:15 AM 75.4 °F - 72.9 °F 92% 29.93 in 10.0 mi Calm Calm - N/A   Mostly Cloudy
4:35 AM 75.2 °F - 72.7 °F 92% 29.92 in 10.0 mi Calm Calm - N/A   Scattered Clouds
4:55 AM 75.2 °F - 72.5 °F 91% 29.91 in 10.0 mi Calm Calm - N/A   Scattered Clouds
5:15 AM 75.2 °F - 72.5 °F 91% 29.92 in 10.0 mi Calm Calm - N/A   Clear
5:35 AM 75.2 °F - 72.5 °F 91% 29.93 in 10.0 mi Calm Calm - N/A   Clear
5:55 AM 75.2 °F - 72.5 °F 91% 29.95 in 10.0 mi Calm Calm - N/A   Scattered Clouds
6:15 AM 75.2 °F - 72.5 °F 91% 29.95 in 10.0 mi Calm Calm - N/A   Scattered Clouds
6:35 AM 75.4 °F - 72.7 °F 91% 29.95 in 10.0 mi Calm Calm - N/A   Clear
6:55 AM 75.6 °F - 72.7 °F 91% 29.96 in 10.0 mi Calm Calm - N/A   Clear
7:15 AM 75.7 °F - 72.7 °F 90% 29.95 in 10.0 mi Calm Calm - N/A   Scattered Clouds
7:35 AM 76.1 °F - 72.9 °F 90% 29.95 in 5.0 mi Calm Calm - 0.01 in Rain Rain
7:55 AM 76.1 °F - 73.2 °F 91% 29.96 in 7.0 mi Calm Calm - 0.02 in Rain Light Rain
8:15 AM 76.3 °F - 73.4 °F 91% 29.95 in 7.0 mi Calm Calm - N/A   Scattered Clouds
8:35 AM 77.2 °F - 73.6 °F 89% 29.94 in 7.0 mi Calm Calm - N/A   Mostly Cloudy
8:55 AM 77.4 °F - 74.1 °F 90% 29.93 in 7.0 mi Calm Calm - N/A   Overcast
9:15 AM 77.9 °F - 73.8 °F 87% 29.92 in 10.0 mi Calm Calm - N/A   Scattered Clouds
9:35 AM 79.2 °F - 74.8 °F 87% 29.92 in 10.0 mi Calm Calm - N/A   Mostly Cloudy
9:55 AM 79.9 °F - 75.4 °F 86% 29.92 in 7.0 mi Calm Calm - N/A   Mostly Cloudy
10:15 AM 79.7 °F - 75.4 °F 87% 29.93 in 7.0 mi Calm Calm - N/A   Overcast
10:35 AM 80.6 °F 86.4 °F 75.7 °F 85% 29.94 in 7.0 mi Calm Calm - N/A Rain Light Rain
10:55 AM 82.0 °F 89.4 °F 75.9 °F 82% 29.94 in 7.0 mi Calm Calm - N/A   Mostly Cloudy
11:15 AM 82.8 °F 90.4 °F 75.7 °F 79% 29.94 in 7.0 mi Calm Calm - N/A   Mostly Cloudy
11:35 AM 82.4 °F 89.5 °F 75.4 °F 79% 29.95 in 7.0 mi Calm Calm - N/A   Overcast
11:55 AM 83.1 °F 90.7 °F 75.4 °F 77% 29.94 in 7.0 mi Calm Calm - N/A   Overcast
12:15 PM 84.2 °F 92.6 °F 75.4 °F 75% 29.94 in 7.0 mi Calm Calm - N/A   Overcast
12:35 PM 84.9 °F 93.7 °F 75.4 °F 73% 29.95 in 7.0 mi Calm Calm - N/A   Overcast
12:55 PM 87.3 °F 97.7 °F 75.9 °F 69% 29.94 in 7.0 mi Calm Calm - N/A   Scattered Clouds
1:15 PM 87.3 °F 96.8 °F 75.0 °F 67% 29.94 in 10.0 mi WNW 9.2 mph - N/A   Mostly Cloudy
1:35 PM 88.7 °F 99.3 °F 75.7 °F 65% 29.94 in 10.0 mi West 8.1 mph - N/A   Mostly Cloudy
1:55 PM 89.4 °F 98.9 °F 74.5 °F 61% 29.93 in 10.0 mi WNW 9.2 mph - N/A   Mostly Cloudy
2:15 PM 91.0 °F 101.6 °F 74.7 °F 59% 29.92 in 10.0 mi Calm Calm - N/A Thunderstorm Mostly Cloudy
2:35 PM 90.1 °F 98.3 °F 73.2 °F 57% 29.92 in 10.0 mi NW 8.1 mph 16.1 mph N/A   Mostly Cloudy
2:55 PM 92.3 °F 101.5 °F 73.4 °F 54% 29.91 in 10.0 mi NW 9.2 mph - N/A Thunderstorm Scattered Clouds
3:15 PM 91.8 °F 98.6 °F 71.4 °F 51% 29.91 in 10.0 mi WNW 11.5 mph 16.1 mph N/A   Clear
3:35 PM 93.2 °F 99.4 °F 70.5 °F 47% 29.90 in 10.0 mi WNW 11.5 mph 18.4 mph N/A   Clear
3:55 PM 91.6 °F 99.3 °F 72.5 °F 53% 29.90 in 10.0 mi NNW 12.7 mph 20.7 mph N/A   Scattered Clouds
4:15 PM 89.6 °F 96.6 °F 72.1 °F 56% 29.91 in 10.0 mi NW 11.5 mph 16.1 mph N/A   Scattered Clouds
4:35 PM 88.9 °F 96.1 °F 72.3 °F 58% 29.91 in 10.0 mi NW 8.1 mph - N/A   Clear
4:55 PM 88.0 °F 94.7 °F 72.0 °F 59% 29.91 in 10.0 mi North 5.8 mph - N/A   Clear
5:15 PM 89.8 °F 96.5 °F 71.6 °F 55% 29.91 in 10.0 mi NNW 4.6 mph - N/A   Clear
5:35 PM 89.1 °F 94.6 °F 70.7 °F 54% 29.91 in 10.0 mi WNW 5.8 mph - N/A Thunderstorm Clear
5:55 PM 88.7 °F 94.3 °F 70.5 °F 55% 29.91 in 10.0 mi WNW 4.6 mph - N/A   Clear
6:15 PM 88.5 °F 94.0 °F 70.5 °F 55% 29.91 in 10.0 mi Calm Calm - N/A   Clear
6:35 PM 88.5 °F 94.4 °F 70.9 °F 56% 29.91 in 10.0 mi Calm Calm - N/A   Clear
6:55 PM 87.1 °F 92.4 °F 70.5 °F 58% 29.92 in 10.0 mi Calm Calm - N/A   Clear
7:15 PM 86.4 °F 91.4 °F 70.5 °F 59% 29.92 in 10.0 mi Calm Calm - N/A   Clear
7:35 PM 85.1 °F 90.1 °F 70.7 °F 62% 29.93 in 10.0 mi Calm Calm - N/A   Clear
7:55 PM 83.3 °F 88.2 °F 71.4 °F 67% 29.94 in 10.0 mi Calm Calm - N/A   Clear
8:15 PM 81.5 °F 85.9 °F 71.6 °F 72% 29.94 in 10.0 mi Calm Calm - N/A   Clear
8:35 PM 78.3 °F - 72.1 °F 81% 29.94 in 10.0 mi Calm Calm - N/A   Clear
8:55 PM 77.0 °F - 72.3 °F 85% 29.95 in 10.0 mi Calm Calm - N/A   Clear
9:15 PM 76.1 °F - 72.5 °F 89% 29.95 in 10.0 mi Calm Calm - N/A   Clear
9:35 PM 76.1 °F - 72.0 °F 87% 29.95 in 10.0 mi Calm Calm - N/A   Clear
9:55 PM 75.4 °F - 71.8 °F 89% 29.96 in 10.0 mi Calm Calm - N/A   Clear
10:15 PM 75.2 °F - 71.6 °F 89% 29.96 in 10.0 mi Calm Calm - N/A   Clear
10:35 PM 74.7 °F - 71.4 °F 90% 29.96 in 10.0 mi Calm Calm - N/A   Clear
10:55 PM 74.1 °F - 71.2 °F 91% 29.96 in 10.0 mi Calm Calm - N/A   Clear
11:15 PM 73.8 °F - 70.9 °F 91% 29.96 in 10.0 mi Calm Calm - N/A   Clear
11:35 PM 73.9 °F - 71.2 °F 91% 29.96 in 10.0 mi Calm Calm - N/A   Clear
11:55 PM 73.9 °F - 71.1 °F 91% 29.96 in 10.0 mi Calm Calm - N/A   Clear